DELTA 1 DEB, 3123

Orbit data source: Space-Track

DELTA 1 DEB, 3123 is space debris in SSO originally from a launch on Fri, 10 Nov 1967 UTC launched from the Air Force Western Test Range (AFWTR). Debris objects in space refer to the collection of defunct objects orbiting the Earth. Examples of debris include non-operational satellites, rocket bodies, and fragments generated from explosions, collisions, or faulty payload assembly.

Loading next visibility...
Identifier
3123, 1967-114D
Orbit
SSO
Last TLE update
13 hours ago
Origin
Manufacturer
Unknown
Mission
Spacecraft
Bus & Motor
Unknown
Mass
Unknown
Launch date (UTC)
1967-11-10 (58 years ago)
Launch vehicle
Unknown
Launch site
Air Force Western Test Range (AFWTR)
Object type
Payload
Rocket body
Debris
Shape & HBR
Unknown
Radar Cross Section
Small (<0.1 m²)

Expand to show TLE details & history

TLE from 13 hours ago
0 DELTA 1 DEB
1 03123U 67114D   25181.82484377 -.00000020  00000-0  19298-3 0  9993
2 03123 102.4313 298.5444 0028414 189.8640 322.2883 12.48091914624926
Epoch: 2025-06-30T19:47Z
TLE epoch observation values (Epoch: 2025-06-30T19:47:46.501Z)
Latitude
27.37346°
Longitude
-91.00713°
Altitude
1,457.887 km
Speed
7.144 km/s
True Right ascension
08h 20m 15s
True Declination
27° 14' 45"
Sunlit
Object was in daylight at epoch
Visualization orbit readout
Latitude
44.45942°
Longitude
-84.52107°
Altitude
1,465.914 km
Speed
7.14 km/s
Apparent Right ascension
08h 47m 11s
Apparent Declination
7° 35' 39"
Sunlit
Object is in daylight
Visualization observer readout
Local Sidereal Time
20:48:19
Azimuth
0.381° NNE
Elevation
-42.489°
Doppler factor
1
Orbital elements
Apogee altitude
1,492.376 km
Perigee altitude
1,447.777 km
Semi-major axis
7,848.213 km
Eccentricity
0.00284
Inclination
102.4313°
RAAN
298.5444°
Arg. of periapsis
189.864°
True anomaly
Unknown
Mean anomaly
322.2883°
Eccentric anomaly
Unknown
Mean motion
3.12167 °/min
Orbital period
115.32 mins
BSTAR
0.00019298
Loading maneuver chart data...
Loading SW <> Apogee altitude chart data...
Loading historical data...
Loading historical data...
Loading historical data...
Loading historical data...
Loading historical data...
Loading historical data...
Loading historical data...
Other satellites on launch #114 in the year 1967 (1967-11-10 UTC)

DELTA 1 DEB Visibility forecast

Observer location: undefined°, undefined°

Span
Click to sort rows by Start time (UTC) header in descending order
Start Az.
Max El. time (UTC)
Max El. Az.
Max El.
End time (UTC)
End Az.
6 mins2025-07-01 18:47:05.478Z67.781° E2025-07-01 18:50:05.478Z89.741° E12.246°2025-07-01 18:53:05.478Z111.648° ESE
15 mins2025-07-01 20:37:05.478Z22.705° NE2025-07-01 20:44:05.478Z87.078° E43.73°2025-07-01 20:52:05.478Z191.409° SSW
11 mins2025-07-01 22:32:05.478Z348.489° N2025-07-01 22:37:05.478Z302.816° NW24.052°2025-07-01 22:43:05.478Z254.834° W
11 mins2025-07-02 05:48:05.478Z93.739° ESE2025-07-02 05:53:05.478Z50.448° ENE22.642°2025-07-02 05:59:05.478Z4.036° NNE
15 mins2025-07-02 07:38:05.478Z164.976° S2025-07-02 07:45:05.478Z252.296° W44.66°2025-07-02 07:53:05.478Z339.728° N
|